Overview Statistics Trail Chart Weather Telemetry Raw packets
 

This is the latest recevied weather packets stored in our database for station/object NK7E-2. If no packets are shown the sender has not sent any weather packets the latest 10 day(s).

<< 22 23 24 25 26 27 28 >>
Time Temp. Humidity Pressure Rain* Wind** Luminosity Snow
1788113416 31.67° C 42% 1030.2 hPa 0 mm - - -
1788112816 30° C 47% 1030.2 hPa 0 mm - - -
1788112216 28.89° C 50% 1030.2 hPa 0 mm - - -
1788111616 28.33° C 51% 1030 hPa 0 mm - - -
1788111016 28.33° C 51% 1030.1 hPa 0 mm - - -
1788110416 28.89° C 50% 1030.3 hPa 0 mm - - -
1788109816 28.89° C 50% 1030.2 hPa 0 mm - - -
1788109216 28.89° C 50% 1029.9 hPa 0 mm - - -
1788108616 28.33° C 51% 1029.9 hPa 0 mm - - -
1788108016 28.33° C 52% 1029.6 hPa 0 mm - - -
1788107416 27.78° C 54% 1029.4 hPa 0 mm - - -
1788106816 27.22° C 53% 1029.5 hPa 0 mm - - -
1788106216 27.22° C 53% 1029.5 hPa 0 mm - - -
1788105616 27.22° C 54% 1029.2 hPa 0 mm - - -
1788105016 26.67° C 55% 1029.5 hPa 0 mm - - -
1788104416 26.67° C 56% 1029.4 hPa 0 mm - - -
1788103816 26.11° C 56% 1029.3 hPa 0 mm - - -
1788103216 26.11° C 56% 1029.7 hPa 0 mm - - -
1788102616 25.56° C 60% 1029.7 hPa 0 mm - - -
1788102016 25.56° C 60% 1029.6 hPa 0 mm - - -
1788101416 25.56° C 60% 1029.6 hPa 0 mm - - -
1788100816 25.56° C 60% 1030 hPa 0 mm - - -
1788100216 25.56° C 58% 1029.8 hPa 0 mm - - -
1788099615 25.56° C 57% 1029.7 hPa 0 mm - - -
1788099015 25.56° C 58% 1029.8 hPa 0 mm - - -

* Rain latest hour (hover to see other rain measurements)
** Current wind speed in m/s (hover to see current wind gust speed)